Location: Walnut Point State Park
(39.6958°N, 88.0345°W)
Time: 12:53:42
(UTC-05:00)

Cosmos 1833 Rocket - Visible Passes

Search period start: 30 September 2014 00:00
Search period end: 10 October 2014 00:00
Orbit: 833 x 840 km, 71.0° (Epoch: 30 September)

Date Brightness Start Highest point End Pass type
(mag) Time Alt. Az. Time Alt. Az. Time Alt. Az.
30 Sep 4.0 05:43:41 10° S 05:48:56 43° ESE 05:54:12 10° NE visible
01 Oct 4.1 05:27:12 10° S 05:32:22 40° ESE 05:37:33 10° NE visible
02 Oct 4.2 05:10:45 10° S 05:15:48 36° ESE 05:20:54 10° NE visible
03 Oct 4.3 04:54:18 10° SSE 04:59:15 33° ESE 05:04:13 10° NE visible
04 Oct 4.4 04:37:52 10° SSE 04:42:42 31° ESE 04:47:33 10° NE visible
04 Oct 3.3 06:21:23 10° SW 06:26:29 36° WNW 06:31:39 10° N visible
05 Oct 4.5 04:21:28 10° SSE 04:26:09 28° ESE 04:30:51 10° NE visible
05 Oct 3.2 06:04:40 10° SW 06:09:52 39° WNW 06:15:06 10° N visible
06 Oct 4.5 04:06:33 17° SE 04:09:35 26° ESE 04:14:08 10° NE visible
06 Oct 3.1 05:48:21 12° SW 05:53:15 42° WNW 05:58:34 10° N visible
07 Oct 4.6 03:51:33 21° SE 03:53:03 24° ESE 03:57:25 10° NE visible
07 Oct 3.0 05:33:19 22° SW 05:36:38 45° WNW 05:42:01 10° N visible
08 Oct 4.7 03:36:20 22° ESE 03:36:30 22° E 03:40:40 10° NE visible
08 Oct 2.9 05:18:06 35° WSW 05:20:01 49° WNW 05:25:28 10° NNE visible
09 Oct 4.9 03:20:59 19° E 03:20:59 19° E 03:23:54 10° NE visible
09 Oct 2.7 05:02:44 50° W 05:03:24 53° WNW 05:08:54 10° NNE visible
